星链-30850 (STARLINK-30850 )

导读 | 星芒AI

STARLINK-30850 是 SpaceX 星链计划中的一颗低轨通信卫星,属于第 12 批组网发射的星链卫星之一。该卫星于 2023 年发射,运行在约 550 公里的近地轨道,旨在为全球用户提供高速互联网服务。作为星链星座的一部分,它支持宽带接入、低延迟通信等功能,助力偏远地区实现网络覆盖。星链项目计划部署数万颗卫星,构建全球性卫星互联网系统。

基本信息
目录编号:
58247
目录名称:
STARLINK-30850
国际标识:
2023-171T
轨道中心:
EARTH
卫星名称:
星链-30850
卫星全名:
星链-30850 (STARLINK-30850 )
卫星状态:
在轨 (已飞行723 天)
发射日期:
2023-11-08 UTC
国别 :
美国 (US)
星等 :
--
轨道信息
数据来源 国际轨道数据
星历时间: 2025-10-31T05:21:46+0800
10小时前
查看轨道信息
半长轴: 6937.235km
偏心率: 0.0001047
轨道倾角: 43.005°
近地点辐角 270.565°
升交点赤经 271.002°
平近点角 89.507°
近地点: 558.373km
远地点: 559.827km
周期: 95.838分钟
每日圈数: 15.025301
详细信息
固有亮度:
5
最大亮度:
0.3
卫星平台:
Starlink v2.0 mini
覆盖范围:
全球
运营商:
太空探索技术公司
运营商所在国:
美国
制造商(研发单位):
太空探索技术公司
制造商所在国:
美国
使用方式:
暂无
卫星简介
星链(Starlink)计划是由太空探索技术公司(SpaceX)提出的一个巨型低轨卫星互联网星座项目,计划在2019年至2024年间在太空搭建由约1.2万颗卫星组成的“星链”网络,其中1584颗将部署在地球上空550千米处的近地轨道,并从2020年开始工作。该卫星仍在工作。
2D轨道图
3D轨道图
轨道高度分析图
轨道倾角分析图
轨道综合分析图
查看轨道综合分析图